Weather Roundup
Issued by NWS Chicago, IL

Home | Current Version | Previous Version | Graphics & Text | Print | Product List | Glossary On
Versions: 1 2 3 4 5 6 7 8 9 10 11 12 13 14 15 16 17 18 19 20 21 22 23 24 25 26 27 28 29 30 31 32 33 34 35 36 37 38 39 40 41 42 43 44 45 46 47 48 49 50
000
NZUS59 KLOT 281402
HRRLOT

CHICAGO AREA WEATHER ROUNDUP
NATIONAL WEATHER SERVICE CHICAGO/ROMEOVILLE IL
900 AM CDT THU MAY 28 2015

NOTE: "FAIR" INDICATES FEW OR NO CLOUDS BELOW 12,000 FEET WITH NO
SIGNIFICANT WEATHER AND/OR OBSTRUCTIONS TO VISIBILITY.

* THESE STATIONS ARE NOT UNDER NWS QUALITY CONTROL. THEY ALSO MAY NOT
  REPORT WEATHER SUCH AS PRECIPITATION OR FOG.

ILZ005-006-012>014-019>023-281500-
NORTHEAST ILLINOIS

CITY           SKY/WX    TMP DP  RH WIND       PRES   REMARKS
OHARE          MOSUNNY   71  56  58 CALM      30.20S
MIDWAY         MOSUNNY   74  57  55 CALM      30.21R
AURORA         SUNNY     72  58  61 S5        30.22R
WAUKEGAN       NOT AVBL
DUPAGE AIRPORT SUNNY     70  57  63 CALM      30.21R
WHEELING       SUNNY     72  56  57 CALM      30.23R
NORTHERLY IS     N/A     63  56  78 SE3         N/A
$$

WIZ051-052-058>065-066-070>072-281500-
SOUTHEAST WISCONSIN

CITY           SKY/WX    TMP DP  RH WIND       PRES   REMARKS
MILWAUKEE      MOSUNNY   72  56  57 W10       30.19R
KENOSHA*       SUNNY     72  61  68 SW6       30.21R
RACINE*        SUNNY     72  58  61 SW9       30.22R
WAUKESHA       SUNNY     70  57  64 SW7       30.21R
$$

INZ001>003-010>013-019-020-281500-
NORTHWEST INDIANA

CITY           SKY/WX    TMP DP  RH WIND       PRES   REMARKS
GARY*          SUNNY     72  57  60 SE5       30.22R
MICHIGAN CITY* NOT AVBL
RENSSELAER*    NOT AVBL
$$

LMZ740>746-281500-
SOUTHERN LAKE MICHIGAN

STATION/POSITION TIME  SKY/WX   TEMP WIND        PRES    VSBY
                                AIR  DIR/SP/G
                 (UTC)          (F)  (DEG/KT/KT) (MB)    (MI)
HARRISON CRIB    1300            65  180/ 10/ 11   N/A
BURNHAM HARBOR   1400            64  110/  2/  6   N/A
CALUMET HARBOR   1312            67  200/  3/  4   N/A
BURNS HARBOR     1300            66  180/  5/  9 1023.7R
MICHIGAN CITY    1300            64  140/  8/ 10   N/A
$$

ABBREVIATIONS USED IN REMARKS
   TC - TEMPERATURE IN CELSIUS
  WCI - WIND CHILL INDEX
   HX - HEAT INDEX
  VSB - VISIBILITY
$$



USA.gov is the U.S. government's official web portal to all federal, state and local government web resources and services.